Fort Campbell, KY

8:57 PM CDT on March 24, 2017 (GMT -0500)
Campbell Army Air Field

Weather History for KHOP - June, 2013

Change the Weather History Date:

Tuesday, June 4, 2013

  Actual Average Record
Temperature  
Mean Temperature 68 °F -  
Max Temperature 80 °F 79 °F 95 °F (2011)
Min Temperature 55 °F 61 °F 53 °F (2003)
Cooling Degree Days 2    
Growing Degree Days 18 (Base 50)    
Moisture  
Dew Point 60 °F    
Average Humidity 75    
Maximum Humidity 100    
Minimum Humidity 48    
Precipitation  
Precipitation 0.00 in - - ()
Sea Level Pressure  
Sea Level Pressure 30.03 in    
Wind  
Wind Speed 5 mph (NE)    
Max Wind Speed 9 mph    
Max Gust Speed -    
Visibility 10 miles    
Events      
Averages and records for this station are not official NWS values.
T = Trace of Precipitation, MM = Missing Value Source: NWS Daily Summary

Daily Weather History Graph

Daily Weather History Graph

Search for Another Location

Airport or City:

Trip Planner

Search our weather history database for the weather conditions in past years. The results will help you decide how hot, cold, wet, or windy it might be!

Date:

Astronomy

Jun. 04, 2013 Rise Set
Actual Time 5:31 AM CDT 8:05 PM CDT
Civil Twilight 5:01 AM CDT 8:35 PM CDT
Nautical Twilight 4:24 AM CDT 9:12 PM CDT
Astronomical Twilight 3:42 AM CDT 9:54 PM CDT
Moon 2:56 AM CDT (6/4) 4:38 PM CDT (6/4)
Length of Visible Light 15h 33m
Length of Day
14h 33m
Waning Crescent, 14% of the Moon is Illuminated
Jun 4
Waning Crescent
Jun 8
New
Jun 16
First Quarter
Jun 23
Full
Jun 29
Last Quarter

Hourly Weather History & Observations

Time (CDT) Temp. Heat Index Dew Point Humidity Pressure Visibility Wind Dir Wind Speed Gust Speed Precip Events Conditions
12:58 AM 57.6 °F - 57.6 °F 100% 30.03 in 10.0 mi NNE 5.8 mph - N/A   Clear
1:58 AM 57.6 °F - 57.6 °F 100% 30.03 in 10.0 mi NNE 4.6 mph - N/A   Clear
2:58 AM 58.1 °F - 57.6 °F 98% 30.03 in 10.0 mi North 3.5 mph - N/A   Clear
3:58 AM 56.8 °F - 56.8 °F 100% 30.03 in 10.0 mi North 2.3 mph - N/A   Clear
4:58 AM 55.9 °F - 55.9 °F 100% 30.04 in 10.0 mi NNE 3.5 mph - N/A   Clear
5:58 AM 55.6 °F - 55.6 °F 100% 30.06 in 10.0 mi NNE 4.6 mph - N/A   Clear
6:58 AM 59.5 °F - 59.5 °F 100% 30.05 in 10.0 mi NE 5.8 mph - N/A   Clear
7:58 AM 64.2 °F - 59.9 °F 86% 30.06 in 10.0 mi East 6.9 mph - N/A   Clear
8:58 AM 68.5 °F - 60.1 °F 74% 30.07 in 10.0 mi Variable 3.5 mph - N/A   Clear
9:58 AM 72.0 °F - 60.8 °F 68% 30.07 in 10.0 mi ENE 4.6 mph - N/A   Clear
10:58 AM 74.7 °F - 59.2 °F 58% 30.07 in 10.0 mi East 5.8 mph - N/A   Clear
11:58 AM 75.6 °F - 57.2 °F 53% 30.05 in 10.0 mi NE 4.6 mph - N/A   Partly Cloudy
12:58 PM 76.6 °F - 56.7 °F 50% 30.05 in 10.0 mi SE 5.8 mph - N/A   Partly Cloudy
1:58 PM 77.2 °F - 58.5 °F 52% 30.03 in 10.0 mi ENE 9.2 mph - N/A   Partly Cloudy
2:58 PM 78.8 °F - 58.3 °F 49% 30.02 in 10.0 mi East 4.6 mph - N/A   Clear
3:58 PM 78.4 °F - 58.3 °F 50% 30.01 in 10.0 mi NE 5.8 mph - N/A   Clear
4:58 PM 80.1 °F 80.7 °F 58.5 °F 48% 29.99 in 10.0 mi Variable 5.8 mph - N/A   Clear
5:58 PM 78.4 °F - 59.9 °F 53% 29.99 in 10.0 mi NNE 6.9 mph - N/A   Mostly Cloudy
6:58 PM 75.6 °F - 61.7 °F 62% 29.99 in 10.0 mi NE 5.8 mph - N/A   Clear
7:58 PM 73.2 °F - 63.5 °F 71% 29.98 in 10.0 mi NE 5.8 mph - N/A   Scattered Clouds
8:58 PM 71.2 °F - 63.1 °F 75% 29.99 in 10.0 mi NE 4.6 mph - N/A   Clear
9:58 PM 68.7 °F - 64.6 °F 87% 30.00 in 10.0 mi North 4.6 mph - N/A   Clear
10:58 PM 68.0 °F - 63.7 °F 86% 30.01 in 10.0 mi NE 4.6 mph - N/A   Clear
11:58 PM 66.7 °F - 63.9 °F 90% 30.00 in 10.0 mi NE 4.6 mph - N/A   Clear